Tracking 17636 objects as of 30-April-2016
HD Live streaming from Space Station
objects crossing your sky now

H-1 R/B(1)

Track H-1 R/B(1) now!
10-day predictions


NORAD ID: 20230
Int'l Code: 1989-070B
Perigee: 196.1 km
Apogee: 7,016.3 km
Inclination: 28.2 °
Period: 165.3 minutes
Semi major axis: 9977 km
RCS: 2.9914 m2 (large)
Launch date: September 5, 1989
Source: Japan (JPN)
Launch site: TANEGASHIMA SPACE CENTER (TNSTA)

Note: This is a ROCKET BODY
Your satellite tracking list
Your tracking list is empty





NASA's NSSDC Master Catalog

Two Line Element Set (TLE):
1 20230U 89070B   16120.60952672  .00180616 -40681-6  11680-2 0  9994
2 20230  28.2241 358.6054 3417892  22.6160 349.4569  8.71148095471397
Source of the keplerian elements: AFSPC

N2YO: 303